Погода в Шадринске

Погода в Шадринске : погода сейчас, прогноз погоды и архив. Всё, что Вы хотите узнать о погоде в Шадринске!

Хотите узнать прогноз погоды в Шадринске? Тогда Вам сюда: Погода в Шадринске

Поиск расширенной информации на нашем сайте:

Другие новости

Новости СМИ2

Главная страница сайта

Новости сайта

02.10.2013

Напоминаем, что на нашем новом сайте вы можете получить высокодетализированные прогнозы погоды по пунктам России, СНГ и мира (включающие важные для авиации метеовеличины, такие как направление и скорость ветра, видимость, явления погоды, количество и форма облачности, нижняя и верхняя граница облачности), а также ознакомиться с разнообразными материалами по авиационной метеорологии и подборкой полезных ссылок на эту тему.

Сайт Метеоцентр.Азия посвящён разработке технологий оптимизации авиаметеорологического обслуживания, включая проектирование и перспективное создание нескольких автоматизированных авиаметеорологических систем:
- система выпуска высокодетальных прогностических карт явлений погоды для нижнего воздушного пространства по России и ближнему зарубежью;
- система верификации прогнозов TAF (выпускаемых синоптиками официальных АМСГ РФ и ближнего зарубежья) и AUTOTAF (выпускаемых сайтом Метеоцентр.Азия) - выявление ошибок, онлайн-сопоставление с фактической погодой METAR, автоматическое внесение коррективов в прогнозы при резком отклонении фактической погоды от прогноза, подсчёт оправдываемости прогнозов по элементам и в целом;
- система обработки, анализа и отображения авиаметеорологической информации для применения провайдерами метеорологической информации.

Рекомендуем: Информация велотренажеры оптом у нас на сайте.

Погода в Шадринске - сегодня

Время (UTC), дата Ветер
(°,м/с) 
Видим.   Явления Облачность Т
(°С)
Тd
(°С)
f(%) Тe
(°С)
Pmin
(гПа)
dP
(гПа)
Po
(мм)
O2
(г/м3)
Тmin Tmax R s Состояние
почвы
12 16.02.17 190 (Ю) 10 км    3/0 верхняя 
[Ci sp]
-8.7 -14.5 63 -8  1020.8  0.4  757  316           
15 16.02.17 320 (СЗ) 10 км    3/0 верхняя 
[Ci sp]
-15.9 -18.4 81 -16  1021.4  0.3  757  325    -7.3       
18 16.02.17 240 (ЮЗ) 10 км    10/8 600 м верхняя 
[Sc|Ci sp]
-13.9 -16.3 82 -14  1021.1  -0.2  757  323           
21 16.02.17 тихо ()   10 км    4/3 600 м верхняя 
[Sc|Ci sp]
-18.1 -20.3 83 -18  1021.1  -0.2  757  328           
00 17.02.17 тихо ()   10 км    3/0 верхняя 
[Ci sp]
-21.1 -23.7 80 -21  1021.5  0.3  757  332           
03 17.02.17 270 (З) 10 км    3/0 верхняя 
[Ci sp]
-23.5 -26.5 76 -24  1022.3  0.6  757  336  -23.5      41  равномерный
сухой снег
100% 
06 17.02.17 290 (З) 10 км    3/0 верхняя 
[Ci ing]
-19.6 -22.6 77 -20  1023  0.8  758  331  -23.9         
09 17.02.17 250 (З) 10 км    3/3 600 м 
[Sc]
-12.8 -17.6 67 -15  1022.3  -0.3  758  322           
12 17.02.17 210 (ЮЗ) 10 км    ясно 
-10.7 -16.7 61 -14  1021.9  -0.4  758  319           
15 17.02.17 210 (ЮЗ) 10 км    3/0 верхняя 
[Ci sp]
-12.8 -16.9 71 -16  1022.1  0.1  758  322    -9.2       
18 17.02.17 250 (З) 10 км    3/0 верхняя 
[Ci sp]
-15.1 -18.4 76 -15  1022.2  758  325           
21 17.02.17 310 (СЗ) 10 км    3/0 верхняя 
[Ci sp]
-17.6 -20.1 81 -18  1021.9  -0.4  757  328           
00 18.02.17 330 (СЗ) 10 км    3/0 верхняя 
[Ci sp]
-18.6 -20.9 82 -19  1020.9  -1.1  757  329           
03 18.02.17 270 (З) 10 км    3/0 верхняя 
[Ci sp]
-19.9 -22.5 80 -20  1019.9  -1  756  330  -20.4      41  равномерный
сухой снег
100% 
06 18.02.17 220 (ЮЗ) 10 км    3/0 верхняя 
[Ci sp]
-15.8 -18.8 78 -18  1019.1  -0.6  755  325           
09 18.02.17 180 (Ю) 10 км    4/0 верхняя 
[Ci sp]
-13.2 -18 67 -15  1017.1  -1.8  754  321           
12 18.02.17 210 (ЮЗ) 10 км    6/0 верхняя 
[Ci sp]
-11.6 -16.8 65 -14  1014.7  -2.3  752  318           
15 18.02.17 200 (Ю) 6-10{10}  10 км  позёмок  6/3 600 м верхняя 
[Sc|Ci sp]
-14.7 -18.8 71 -21  1013.5  -1.3  751  321    -11.1       
18 18.02.17 200 (Ю) 1{10}  10 км    6/3 600 м верхняя 
[Sc|Ci sp]
-17.2 -20.9 73 -17  1012.6  -1.3  750  324           
21 18.02.17 190 (Ю) 10 км    6/0 верхняя 
[Ci sp]
-17.9 -21.5 73 -20  1010.7  -1.9  749  325           
00 19.02.17 130 (ЮВ) 10 км    8/6 600 м верхняя 
[Sc|Ci sp]
-18.5 -22 74 -19  1008.2  -2.4  747  325           
03 19.02.17 070 (В) 10 км    9/6 600 м верхняя 
[Sc|Ci sp]
-19.3 -22.7 74 -20  1006  -2.2  746  325  -20      41  равномерный
сухой снег
100% 
06 19.02.17 200 (Ю) 10 км  слаб. снег  10/10 600 м 
[Sc]
-13.8 -18 71 -17  1004.1  -1.6  744  317           
09 19.02.17 200 (Ю) 4000 м  слаб. снег  10/6 300 м средняя 
[Frnb|As trans]
-8.8 -12.8 73 -13  1000.8  -3  742  310           
12 19.02.17 200 (Ю) 4{10}  0500 м  сильн. снег  10/0 средняя 
[As op]
-9.4 -11.5 85 -13  999.2  -1.6  741  310           
Время (UTC), дата Ветер
(°,м/с) 
Видим.   Явления Облачность Т
(°С)
Тd
(°С)
f(%) Тe
(°С)
Pmin
(гПа)
dP
(гПа)
Po
(мм)
O2
(г/м3)
Тmin Tmax R s Состояние
почвы

Для получения пояснительной информации подведите курсор к названию столбца.

ПОГОДА в Шадринске - архив

Всё, что Вы хотите узнать о погоде в Шадринске - удобно и подробно!

Выберите нужную дату (начиная с 1 января 2015* года) и нажмите кнопку "Найти".
Будут отображены архивные сводки погоды по пункту Шадринск, начиная с указанной даты.


Отображать данные в формате CSV (для использования в таблицах Excel)


Внимание! Наш архив погоды предназначен исключительно для личного некоммерческого использования в познавательных целях. Если Вам необходимы официальные справки о состоянии погоды (для производственных, юридических, коммерческих и т.п. целей), обращайтесь в органы Росгидромета.

*Примечание: данная дата относится к архиву по метеостанциям СССР (Россия, СНГ, Балтия).
Архив по метеостанциям Зарубежной Европы и Азии (кроме Китая) хранится 10 дней, по другим регионам земного шара (Китай, Африка, Америка, Австралия, Океания) - 1 день.

Шадринск - район местоположения метеостанции


Название, широта, долгота, высота метеостанции:
Шадринск 56.1°ш. 63.6°д. 89 м над ур. моря [Российская Федерация]

Дополнительная информация

В oтличие oт бoльшинства пoгoдных сайтoв мы публикуем пoдрoбную метеoинфoрмацию в детальнoм прoфессиoнальнoм фoрмате.

Характеристики температуры и влажнoсти вoздуха измеряются на высoте 2 м в тени вдали oт зданий и деревьев.
Скoрoсть ветра измеряется на высoте 10 м (на урoвне рoста челoвека скoрoсть ветра ниже в 1.5-2 раза). Если метеoстанция нахoдится в гoрoде или в лесу, тo скoрoсть ветра занижена на 2-4 м/с пo сравнению с oткрытым местoм. Скoрoсть ветра над акватoриями крупных рек и oзёр, а также на вершинах хoлмoв на 2-5 м/с выше, чем в oбычных услoвиях.
Атмoсфернoе давление в разных тoчках местнoсти мoжет значительнo oтличаться oт давления на метеoстанции, в зависимoсти oт услoвий рельефа (при пoдъёме на 10 м давление пoнижается примернo на 1 мм рт.ст.).